Regional Weather Roundup
Issued by NWS Jackson, KY

Home | Current Version | Previous Version | Graphics & Text | Print | Product List | Glossary On
Versions: 1 2 3 4 5 6 7 8 9 10 11 12 13 14 15 16 17 18 19 20 21 22 23 24 25 26 27 28 29 30 31 32 33 34 35 36 37 38 39 40 41 42 43 44 45 46 47 48 49 50
894
ASUS43 KJKL 231010
RWRJKL

EAST KENTUCKY HOURLY WEATHER ROUNDUP
NATIONAL WEATHER SERVICE JACKSON KY
600 AM EDT THU MAR 23 2017

NOTE: "FAIR" INDICATES FEW OR NO CLOUDS BELOW 12,000 FEET WITH
NO SIGNIFICANT WEATHER AND/OR OBSTRUCTIONS TO VISIBILITY.

* THESE REPORTS ARE NOT UNDER NWS QUALITY CONTROL AND MAY NOT
  REPORT WEATHER SUCH AS PRECIPITATION AND FOG.

KYZ079-080-083-085-087-088-110-112-115-119-120-231100
...EASTERN KENTUCKY...

CITY           SKY/WX    TMP DP  RH WIND       PRES   REMARKS
JACKSON        CLEAR     30  14  51 NE6       30.37R WCI  24
LONDON         CLEAR     33  15  47 NE6       30.35R WCI  28
SOMERSET*      CLEAR     34  14  44 E3        30.38R
MONTICELLO*    CLEAR     33  20  58 NW7       30.37R WCI  27
WILLIAMSBURG*  SUNNY     36  16  44 CALM      30.35R
MIDDLESBORO*   CLEAR     32  27  81 CALM      30.36R
HARLAN APT*    SUNNY     32  21  64 CALM      30.35R
PIKE CO APT*     N/A     30  16  56 NE7       30.38R WCI  23
BIG SANDY APT* SUNNY     28  17  62 NE5       30.40R WCI  23
MOREHEAD APT*  SUNNY     30  12  47 E9        30.44R WCI  22
ASHLAND*       CLEAR     30  12  47 E5        30.46R WCI  25
$$

KYZ035-036-041-042-044-050-067-078-099-231100
...CENTRAL KENTUCKY...

CITY           SKY/WX    TMP DP  RH WIND       PRES   REMARKS
MT STERLING*   CLEAR     30  18  59 E9        30.42R WCI  22
FLEMING/MASON* CLEAR     27  15  62 E7        30.45R WCI  19
DANVILLE*      CLEAR     28  19  69 E5        30.38S WCI  23
LEXINGTON      CLEAR     30  16  56 NE12      30.39S WCI  20
FRANKFORT      CLOUDY    31  15  52 NE8       30.39S WCI  23
LOUISVILLE     CLOUDY    34  15  46 NE7       30.40S WCI  28
LEBANON*         N/A     32  18  55 E6        30.37S WCI  26
GLASGOW*       CLEAR     32  23  70 NE7       30.34S WCI  26
BOWLING GREEN  CLEAR     33  23  66 NE7       30.34S WCI  27
$$

KYZ091>093-OHZ055-061-077-WVZ005-015-034-035-042-231100
...SOUTHERN OHIO/WEST VIRGINIA...

CITY           SKY/WX    TMP DP  RH WIND       PRES   REMARKS
COVINGTON      PTCLDY    29  17  61 E10       30.42F WCI  20
COLUMBUS       CLEAR     25  12  58 E8        30.51R WCI  16
DAYTON         CLEAR     24  16  71 E10       30.46F WCI  14
WILMINGTON     CLEAR     25  17  72 E9        30.45S WCI  15
HUNTINGTON     CLEAR     30  14  51 NE8       30.45R WCI  22
CHARLESTON     CLEAR     26  21  81 NE3       30.45R
PINEVILLE*     CLEAR     24  19  81 MISG      30.43S
BECKLEY        CLEAR     29  12  49 SE7       30.37S WCI  22
BLUEFIELD      CLEAR     31  10  41 SE9       30.36S WCI  23
LOGAN CO APT*    N/A     30  16  55 CALM      30.38R
$$

VAZ002-007-008-TNZ017-027-036-066-071-231100
...SOUTHWEST VIRGINIA/EAST TENNESSEE...

CITY           SKY/WX    TMP DP  RH WIND       PRES   REMARKS
WISE*          CLEAR     32  14  47 CALM      30.34R
JONESVILLE*      N/A     32  25  74 CALM      30.37R
ABINGDON*      CLEAR     37  17  43 E12       30.36R WCI  29
BRISTOL        CLEAR     32  21  64 CALM      30.36R
MORRISTOWN*    PTSUNNY   39  19  45 NE5       30.30S
SEVIERVILLE*   SUNNY     30  27  86 CALM      30.31S
KNOXVILLE      PTCLDY    40  21  46 CALM      30.31S
LAFOLLETTE*    SUNNY     32  27  80 CALM      30.36R
OAK RIDGE      CLEAR     39  20  46 CALM      30.34R
CROSSVILLE     CLEAR     39  18  42 E3        30.29S
NASHVILLE      CLEAR     38  26  62 NE6       30.31R WCI  33
$$

...KEY TO REMARKS...
VSB - VISIBILITY IN MILES
WCI - WIND CHILL INDEX
HX  - HEAT INDEX

$$




USA.gov is the U.S. government's official web portal to all federal, state and local government web resources and services.